VLG7JU LEBL-LEIB

Flight info

Callsign VLG7JU
Flight time 0h 34m
Altitude 19000
Route LARPA N859 TOLSO
Aircraft A321/M-SDFGHILORVWXY/LB1

Departure

Time 2026-05-06 16:48
Airport Josep Tarradellas Barcelona-El Prat Airport (LEBL)

Arrival

Time 2026-05-06 17:22
Airport Ibiza Airport (LEIB)
Time Latitude Longitude Altitude Speed Heading
2026-05-06 16:47 41.23422 2.06388 2552 ft 211 kts 186°
2026-05-06 16:48 41.21948 2.06225 3062 ft 219 kts 188°
2026-05-06 16:48 41.20421 2.06047 3814 ft 221 kts 187°
2026-05-06 16:48 41.19386 2.05938 4372 ft 222 kts 187°
2026-05-06 16:48 41.17843 2.05740 5143 ft 223 kts 196°
2026-05-06 16:49 41.16388 2.04939 5717 ft 234 kts 210°
2026-05-06 16:49 41.14928 2.03910 6414 ft 240 kts 210°
2026-05-06 16:49 41.13445 2.02876 7166 ft 242 kts 210°
2026-05-06 16:49 41.11946 2.01842 7941 ft 244 kts 210°
2026-05-06 16:50 41.10434 2.00804 8726 ft 246 kts 210°
2026-05-06 16:50 41.08907 1.99760 9515 ft 248 kts 210°
2026-05-06 16:50 41.07354 1.98750 10251 ft 251 kts 203°
2026-05-06 16:50 41.05622 1.98152 10684 ft 269 kts 194°
2026-05-06 16:51 41.03674 1.97956 10886 ft 297 kts 175°
2026-05-06 16:51 41.01644 1.98923 11055 ft 327 kts 154°
2026-05-06 16:51 40.99614 2.00461 11399 ft 342 kts 153°
2026-05-06 16:51 40.97556 2.02094 12036 ft 347 kts 152°
2026-05-06 16:52 40.95483 2.03760 12744 ft 350 kts 152°
2026-05-06 16:52 40.93387 2.05441 13444 ft 353 kts 153°
2026-05-06 16:52 40.91246 2.07145 14108 ft 356 kts 153°
2026-05-06 16:52 40.89107 2.08835 14726 ft 360 kts 154°
2026-05-06 16:53 40.86945 2.10534 15353 ft 363 kts 155°
2026-05-06 16:53 40.84772 2.12237 15977 ft 366 kts 155°
2026-05-06 16:53 40.82571 2.13956 16605 ft 369 kts 155°
2026-05-06 16:53 40.80344 2.15689 17221 ft 373 kts 156°
2026-05-06 16:54 40.78103 2.17430 17822 ft 376 kts 156°
2026-05-06 16:54 40.75837 2.19194 18407 ft 380 kts 156°
2026-05-06 16:54 40.73551 2.20977 18795 ft 383 kts 157°
2026-05-06 16:54 40.71254 2.22771 18905 ft 383 kts 157°
2026-05-06 16:55 40.68973 2.24556 18927 ft 381 kts 157°
2026-05-06 16:55 40.66696 2.26336 18928 ft 380 kts 157°
2026-05-06 16:55 40.64424 2.28106 18928 ft 380 kts 157°
2026-05-06 16:55 40.62147 2.29875 18930 ft 380 kts 157°
2026-05-06 16:56 40.59869 2.31641 18930 ft 380 kts 157°
2026-05-06 16:56 40.57591 2.33404 18932 ft 380 kts 157°
2026-05-06 16:56 40.55313 2.35167 18933 ft 380 kts 157°
2026-05-06 16:56 40.53036 2.36927 18931 ft 380 kts 157°
2026-05-06 16:57 40.50744 2.38643 18933 ft 376 kts 161°
2026-05-06 16:57 40.48336 2.39871 18926 ft 367 kts 172°
2026-05-06 16:57 40.45873 2.40726 18936 ft 366 kts 173°
2026-05-06 16:57 40.43404 2.41529 18929 ft 362 kts 178°
2026-05-06 16:58 40.40906 2.41591 18946 ft 363 kts 194°
2026-05-06 16:58 40.38479 2.40605 18938 ft 372 kts 210°
2026-05-06 16:58 40.36161 2.38958 18930 ft 384 kts 212°
2026-05-06 16:58 40.33812 2.37247 18936 ft 388 kts 213°
2026-05-06 16:59 40.31439 2.35514 18935 ft 389 kts 213°
2026-05-06 16:59 40.29055 2.33773 18944 ft 389 kts 213°
2026-05-06 16:59 40.26691 2.32052 18942 ft 389 kts 212°
2026-05-06 16:59 40.24325 2.30337 18937 ft 389 kts 212°
2026-05-06 17:00 40.21958 2.28627 18935 ft 389 kts 212°
2026-05-06 17:00 40.19590 2.26916 18938 ft 389 kts 212°
2026-05-06 17:00 40.17223 2.25202 18945 ft 389 kts 212°
2026-05-06 17:00 40.14861 2.23492 18936 ft 388 kts 212°
2026-05-06 17:01 40.12499 2.21783 18928 ft 388 kts 212°
2026-05-06 17:01 40.10138 2.20074 18916 ft 388 kts 212°
2026-05-06 17:01 40.07777 2.18365 18918 ft 388 kts 212°
2026-05-06 17:01 40.05417 2.16662 18924 ft 387 kts 212°
2026-05-06 17:02 40.03057 2.14963 18914 ft 387 kts 212°
2026-05-06 17:02 40.00698 2.13270 18921 ft 387 kts 212°
2026-05-06 17:02 39.98340 2.11583 18916 ft 387 kts 212°
2026-05-06 17:02 39.95976 2.09891 18917 ft 388 kts 212°
2026-05-06 17:03 39.93610 2.08198 18915 ft 388 kts 212°
2026-05-06 17:03 39.91248 2.06505 18909 ft 388 kts 212°
2026-05-06 17:03 39.88883 2.04809 18912 ft 388 kts 212°
2026-05-06 17:03 39.86517 2.03112 18912 ft 388 kts 212°
2026-05-06 17:04 39.84151 2.01416 18913 ft 389 kts 212°
2026-05-06 17:04 39.81777 1.99718 18907 ft 389 kts 212°
2026-05-06 17:04 39.79404 1.98028 18919 ft 389 kts 212°
2026-05-06 17:04 39.77034 1.96339 18907 ft 389 kts 212°
2026-05-06 17:05 39.74659 1.94645 18912 ft 390 kts 212°
2026-05-06 17:05 39.72277 1.92946 18904 ft 390 kts 212°
2026-05-06 17:05 39.69897 1.91250 18905 ft 390 kts 212°
2026-05-06 17:05 39.67475 1.89524 18710 ft 392 kts 212°
2026-05-06 17:06 39.65124 1.87853 18358 ft 390 kts 212°
2026-05-06 17:06 39.62719 1.86148 17974 ft 388 kts 212°
2026-05-06 17:06 39.60356 1.84473 17564 ft 387 kts 212°
2026-05-06 17:06 39.57998 1.82807 17165 ft 386 kts 212°
2026-05-06 17:07 39.55647 1.81148 16700 ft 384 kts 212°
2026-05-06 17:07 39.53307 1.79493 16233 ft 382 kts 212°
2026-05-06 17:07 39.50981 1.77844 15777 ft 380 kts 212°
2026-05-06 17:07 39.48663 1.76203 15338 ft 379 kts 211°
2026-05-06 17:08 39.46355 1.74572 14794 ft 377 kts 211°
2026-05-06 17:08 39.44066 1.72955 14318 ft 372 kts 211°
2026-05-06 17:08 39.41816 1.71369 13832 ft 365 kts 211°
2026-05-06 17:08 39.39603 1.69811 13318 ft 359 kts 211°
2026-05-06 17:09 39.37428 1.68278 12783 ft 353 kts 211°
2026-05-06 17:09 39.35292 1.66773 12263 ft 347 kts 211°
2026-05-06 17:09 39.33192 1.65295 11761 ft 341 kts 211°
2026-05-06 17:09 39.31127 1.63845 11415 ft 332 kts 211°
2026-05-06 17:10 39.29155 1.62469 11274 ft 309 kts 211°
2026-05-06 17:10 39.27343 1.61207 11131 ft 287 kts 211°
2026-05-06 17:10 39.25622 1.60003 10966 ft 277 kts 212°
2026-05-06 17:10 39.23939 1.58824 10658 ft 274 kts 212°
2026-05-06 17:11 39.22271 1.57653 10305 ft 273 kts 212°
2026-05-06 17:11 39.20606 1.56482 9928 ft 272 kts 212°
2026-05-06 17:11 39.18943 1.55312 9534 ft 272 kts 212°
2026-05-06 17:11 39.17285 1.54148 9147 ft 272 kts 212°
2026-05-06 17:12 39.15626 1.52987 8767 ft 271 kts 211°
2026-05-06 17:12 39.13972 1.51830 8382 ft 270 kts 211°
2026-05-06 17:12 39.12319 1.50674 8012 ft 270 kts 211°
2026-05-06 17:12 39.10667 1.49523 7637 ft 269 kts 211°
2026-05-06 17:13 39.09022 1.48378 7293 ft 269 kts 211°
2026-05-06 17:13 39.07723 1.47473 7040 ft 268 kts 211°
2026-05-06 17:13 39.06079 1.46325 6757 ft 266 kts 212°
2026-05-06 17:13 39.04577 1.44967 6443 ft 262 kts 225°
2026-05-06 17:14 39.03397 1.43258 6326 ft 250 kts 236°
2026-05-06 17:14 39.02387 1.41493 6192 ft 239 kts 235°
2026-05-06 17:14 39.01415 1.39812 5881 ft 231 kts 235°
2026-05-06 17:14 39.00452 1.38156 5428 ft 230 kts 234°
2026-05-06 17:15 38.99495 1.36513 4987 ft 229 kts 234°
2026-05-06 17:15 38.98546 1.34885 4645 ft 225 kts 234°
2026-05-06 17:15 38.97606 1.33272 4387 ft 225 kts 233°
2026-05-06 17:15 38.96683 1.31684 4139 ft 225 kts 233°
2026-05-06 17:16 38.95750 1.30079 3884 ft 224 kts 233°
2026-05-06 17:16 38.94816 1.28474 3639 ft 223 kts 233°
2026-05-06 17:16 38.93896 1.26890 3464 ft 216 kts 233°
2026-05-06 17:16 38.93030 1.25407 3450 ft 200 kts 233°
2026-05-06 17:17 38.92208 1.24019 3366 ft 190 kts 232°
2026-05-06 17:17 38.91417 1.22694 3217 ft 186 kts 231°
2026-05-06 17:17 38.90416 1.21667 2943 ft 187 kts 202°
2026-05-06 17:17 38.89124 1.21392 2640 ft 192 kts 180°
2026-05-06 17:18 38.87775 1.21542 2209 ft 198 kts 173°
2026-05-06 17:18 38.86463 1.22001 1979 ft 193 kts 156°
2026-05-06 17:18 38.85408 1.22851 2051 ft 169 kts 140°
2026-05-06 17:18 38.84665 1.23935 2229 ft 156 kts 123°
2026-05-06 17:19 38.84348 1.25243 2159 ft 153 kts 99°
2026-05-06 17:19 38.84290 1.26587 1998 ft 151 kts 92°
2026-05-06 17:19 38.84313 1.27911 1779 ft 147 kts 89°
2026-05-06 17:19 38.84382 1.29215 1406 ft 146 kts 86°
2026-05-06 17:20 38.84555 1.30484 1073 ft 144 kts 75°
2026-05-06 17:20 38.84957 1.31656 832 ft 141 kts 65°
2026-05-06 17:20 38.85409 1.32770 620 ft 140 kts 65°
2026-05-06 17:20 38.85862 1.33863 423 ft 137 kts 64°
2026-05-06 17:21 38.86300 1.34938 235 ft 136 kts 64°
2026-05-06 17:21 38.86600 1.35652 113 ft 134 kts 64°
2026-05-06 17:21 38.87016 1.36668 30 ft 115 kts 62°
2026-05-06 17:21 38.87318 1.37390 31 ft 67 kts 62°
2026-05-06 17:22 38.87462 1.37723 32 ft 23 kts 52°
2026-05-06 17:22 38.87561 1.37833 33 ft 19 kts 39°
2026-05-06 17:22 38.87674 1.37903 37 ft 15 kts 344°
2026-05-06 17:22 38.87679 1.37813 42 ft 12 kts 248°
2026-05-06 17:23 38.87631 1.37695 43 ft 17 kts 242°
2026-05-06 17:23 38.87577 1.37544 43 ft 18 kts 243°
2026-05-06 17:23 38.87505 1.37388 42 ft 22 kts 242°
2026-05-06 17:23 38.87427 1.37200 41 ft 25 kts 243°
2026-05-06 17:24 38.87382 1.37052 39 ft 9 kts 303°
2026-05-06 17:24 38.87429 1.37012 43 ft 7 kts 331°
2026-05-06 17:24 38.87456 1.36994 44 ft 0 kts 332°